Location: Bouchavesnes-Bergen
(49.9859°N, 2.9203°E)
Time: 05:04:20
(UTC+00:00)

ERS-2 - Pass Details

Date: 09 March 2021
Orbit: 492 x 496 km, 98.6° (Epoch: 11 April)

Event Time Altitude Azimuth Distance (km) Brightness Sun altitude
Rises 04:50:38 0° 140° (SE) 2,567 6.2 -14.3°
Reaches altitude 10° 04:52:50 10° 130° (SE) 1,691 5.4 -14.0°
Maximum altitude 04:56:05 32° 66° (ENE) 875 4.1 -13.4°
Drops below altitude 10° 04:59:22 10° 3° (N) 1,705 5.0 -12.9°
Sets 05:01:35 0° 353° (N) 2,594 5.8 -12.6°
